#timestamp,LO_Frequency,Hit,StdDev 
1696039215.8,286046998.3,N
1696039235.6,286046998.1,N
1696039255.5,286047001.2,N
1696039275.3,286047000.6,N
1696039295.1,286046999.8,N
1696039315.9,286046998.4,N
1696039335.7,286046998.5,N
1696039355.6,286046998.5,N
1696039375.4,286046999.1,N
1696039395.2,286046997.3,N
1696039415.1,286046997.7,N
1696039416.0,286046997.7,N
1696039435.8,286046996.9,N
1696039455.7,286046997.0,N
1696039475.5,286046997.1,N
1696039495.3,286046997.6,N
1696039515.2,286046996.1,N
1696039535.9,286046995.6,N
1696039555.7,286046996.2,N
1696039575.6,286046995.8,N
1696039595.4,286046995.7,N
1696039615.2,286046997.4,N
1696039635.1,286046997.1,N
1696039636.0,286046997.1,N
1696039655.8,286046999.5,N
1696039675.7,286046998.7,N
1696039695.5,286046997.3,N
1696039715.4,286046997.5,N
1696039735.2,286046997.5,N
1696039755.0,286046995.2,Y
1696039755.9,286046995.2,P
1696039775.8,286046996.7,N
1696039795.6,286046996.6,P
1696039815.5,286046999.4,N
1696039835.3,286046998.9,N
1696039855.1,286046998.8,N
1696039875.9,286046998.3,N
1696039895.7,286047001.0,N
1696039915.6,286046998.4,N
1696039935.4,286046996.7,N
1696039955.2,286046998.9,N
1696039975.1,286046996.6,N
1696039976.0,286046996.6,N
1696039995.8,286046996.9,N
1696040015.6,286046997.1,N
1696040035.5,286046995.0,Y
1696040055.3,286046998.7,P
1696040075.2,286046998.4,P
1696040095.9,286046996.9,P
1696040115.7,286046999.4,N
1696040135.6,286046996.5,Y
1696040155.4,286047000.3,P
1696040175.2,286047000.5,N
1696040195.1,286046999.7,N
1696040196.0,286046999.7,N
1696040215.8,286047000.5,N
1696040235.7,286047000.0,N
1696040255.5,286047000.3,N
1696040275.3,286046998.2,N
1696040295.2,286047000.9,N
1696040315.0,286047000.3,N
1696040315.9,286047000.3,N
1696040335.8,286047000.9,N
1696040355.6,286046998.3,N
1696040375.4,286046998.5,N
1696040395.3,286047001.0,N
1696040415.1,286047000.4,N
1696040435.9,286047002.6,N
1696040455.7,286046999.7,N
1696040475.5,286046999.9,N
1696040495.4,286046998.2,N
1696040515.2,286047000.6,N
1696040535.0,286047000.5,N
1696040535.9,286047000.5,N
1696040555.8,286046999.9,N
1696040575.1,286047002.5,N
1696040595.8,286047002.4,N
1696040615.7,286047000.8,N
1696040635.5,286047000.4,N
1696040655.3,286046999.8,N
1696040675.2,286047000.4,N
1696040695.0,286046999.9,N
1696040695.9,286046999.9,N
1696040715.8,286046999.9,N
1696040735.6,286047000.6,N
1696040755.4,286047000.8,N
1696040775.3,286047000.8,N
1696040795.1,286047000.5,N
1696040815.9,286046998.3,N
1696040835.7,286046998.6,N
1696040855.5,286046999.0,N
1696040875.4,286046998.3,N
1696040895.2,286046999.5,N
1696040915.0,286046996.9,N
1696040915.9,286046996.9,N
1696040935.8,286046999.4,N
1696040955.6,286046998.9,N
1696040975.5,286046999.1,N
1696040995.3,286046997.2,N
1696041015.1,286046996.7,N
1696041035.9,286046997.1,N
1696041055.7,286046996.8,N
1696041075.5,286046997.2,N
1696041095.4,286046997.0,N
1696041115.2,286046999.2,N
1696041135.1,286046998.4,N
1696041136.0,286046998.4,N
1696041155.8,286046998.9,N
1696041175.6,286046999.5,N
1696041195.5,286046996.9,N
1696041215.3,286046999.3,N
1696041235.1,286046999.3,N
1696041255.9,286046999.4,N
1696041275.7,286046999.2,N
1696041295.6,286046997.0,N
1696041315.4,286046996.8,N
1696041335.2,286046996.5,N
1696041355.1,286046996.9,N
1696041356.0,286046996.9,N
1696041375.8,286046999.1,N
1696041395.6,286046998.9,N
1696041415.5,286046999.1,N
1696041435.3,286046999.3,N
1696041455.2,286046999.3,N
1696041475.9,286046996.5,Y
1696041495.7,286047000.0,P
1696041515.6,286047000.0,N
1696041535.4,286047000.3,N
1696041555.3,286047001.1,N
1696041575.1,286047000.8,N
1696041576.0,286047000.8,N
1696041595.8,286046998.1,N
1696041615.7,286046998.2,N
1696041635.5,286047000.5,N
1696041655.3,286047000.4,N
1696041675.2,286047000.7,N
1696041695.0,286046998.2,N
1696041695.9,286046998.2,N
1696041715.8,286046998.4,N
1696041735.6,286046999.0,N
1696041755.4,286046998.8,N
1696041775.3,286046998.8,N
1696041795.1,286047000.5,N
1696041815.8,286047000.6,N
1696041835.7,286047000.5,N
1696041855.5,286046999.8,N
1696041875.4,286047000.1,N
1696041895.2,286047000.1,N
1696041915.0,286047000.4,N
1696041915.9,286047000.4,N
1696041935.8,286047002.7,N
1696041955.6,286047002.0,N
1696041975.4,286047002.3,N
1696041995.3,286046999.7,N
1696042015.1,286047001.6,N
1696042035.9,286047003.2,N
1696042055.7,286047005.5,Y
1696042075.5,286047003.3,P
1696042095.4,286047005.6,P
1696042115.2,286047005.5,N
1696042135.1,286047005.7,N
1696042136.0,286047005.7,N
1696042155.8,286047006.9,Y
1696042175.6,286047001.7,P
1696042195.5,286047001.9,N
1696042215.3,286047004.0,P
1696042235.2,286047002.1,N
1696042255.9,286047001.3,N
1696042275.7,286047003.7,Y
1696042295.6,286047002.0,P
1696042315.4,286047002.5,P
1696042335.2,286047002.5,P
1696042355.1,286047002.8,Y
1696042356.0,286047002.8,P
1696042375.8,286046999.1,P
1696042395.7,286046999.1,N
1696042415.5,286046999.1,N
1696042435.3,286046999.3,N
1696042455.2,286046998.7,N
1696042475.0,286046999.3,N
1696042475.9,286046999.3,N
1696042495.8,286046998.5,N
1696042515.6,286046999.2,N
1696042535.4,286046998.2,N
1696042555.3,286047001.0,N
1696042575.1,286047000.9,N
1696042595.8,286047002.8,N
1696042615.7,286046999.7,N
1696042635.5,286047000.3,N
1696042655.4,286047000.7,N
1696042675.2,286047001.1,N
1696042695.0,286046998.4,N
1696042695.9,286046998.4,N
1696042715.8,286047000.8,N
1696042735.6,286047000.9,N
1696042755.4,286047000.7,N
1696042775.3,286047000.5,N
1696042795.1,286047000.8,N
